N8DNY-13 Weather Reports


Display with metric or nautical units.
time (UTC)temp
F
wind
direction
speed
MPH
gust
MPH
rain 1hr
in
rain 24hr
in
rain mn
in
humidity
%
barometer
mb
20260904075730 70 293 0.0 0.0 0.00 0.00 0.00 99 1014.7
20260904074220 70 293 0.0 0.0 0.00 0.00 0.00 99 1014.6
20260904072730 70 293 0.0 0.0 0.00 0.00 0.00 99 1014.8
20260904071200 70 293 0.0 0.0 0.00 0.00 0.00 99 1015.0
20260904065711 70 293 0.0 0.0 0.00 0.00 0.00 99 1014.9
20260904064140 70 292 0.0 0.0 0.00 0.00 0.00 99 1015.4
20260904062631 70 292 0.0 0.0 0.00 0.00 0.00 99 1015.1
20260904061120 70 292 0.0 0.0 0.00 0.00 0.00 99 1015.2
20260904055610 70 292 0.0 0.0 0.00 0.00 0.00 99 1015.3
20260904054120 70 292 0.0 0.0 0.00 0.00 0.00 99 1015.4
20260904052550 70 292 0.0 0.0 0.00 0.00 0.00 99 1015.4
20260904051041 70 292 0.0 0.0 0.00 0.00 0.00 99 1015.6
20260904045531 71 292 0.0 0.0 0.00 0.00 0.00 99 1015.3
20260904044030 70 292 0.0 0.0 0.00 0.00 0.00 99 1015.3
20260904042521 70 292 0.0 0.0 0.00 0.00 0.00 99 1015.4
20260904041011 70 292 0.0 0.0 0.00 0.00 0.00 99 1015.5
20260904035502 70 292 0.0 0.0 0.00 1.09 1.09 99 1015.2
20260904034001 70 292 0.0 0.0 0.00 1.09 1.09 99 1015.1
20260904032500 71 292 0.0 0.0 0.00 1.09 1.09 99 1015.3
20260904031010 71 292 0.0 0.0 0.00 1.09 1.09 99 1015.3
20260904025449 71 292 0.0 0.0 0.00 1.09 1.09 99 1015.2
20260904023940 71 292 0.0 0.0 0.00 1.09 1.09 99 1015.2
20260904022450 71 291 0.0 0.0 0.00 1.09 1.09 99 1015.1
20260904020921 71 271 0.0 0.0 0.00 1.09 1.09 99 1014.7
20260904015410 71 271 0.0 0.0 0.00 1.09 1.09 99 1014.7
20260904013900 71 271 0.0 0.0 0.00 1.09 1.09 99 1014.7
20260904012410 71 271 0.0 0.0 0.00 1.09 1.09 98 1014.5
20260904010900 72 271 0.0 0.0 0.00 1.09 1.09 98 1014.9
20260904005330 72 278 0.0 0.0 0.00 1.09 1.09 98 1014.6
20260904003841 72 275 0.0 0.0 0.00 1.09 1.09 98 1014.7
20260904002310 72 278 0.0 0.0 0.00 1.09 1.09 98 1014.5
20260904000800 72 278 0.0 0.0 0.00 1.09 1.09 98 1014.6
20260903235250 72 276 0.0 0.0 0.00 1.09 1.09 98 1014.6
20260903233740 72 274 0.0 0.0 0.00 1.09 1.09 98 1014.6
20260903232230 72 280 0.0 1.0 0.00 1.09 1.09 97 1014.8
20260903230720 72 291 0.0 0.0 0.00 1.09 1.09 97 1014.6
20260903225230 72 318 0.0 1.0 0.00 1.09 1.09 97 1015.0
20260903223700 72 291 0.0 1.0 0.00 1.09 1.09 97 1015.1
20260903222150 72 304 0.0 1.0 0.00 1.09 1.09 97 1015.5
20260903220641 72 292 0.0 0.0 0.00 1.09 1.09 97 1015.7
20260903215131 72 294 0.0 1.0 0.00 1.09 1.09 97 1015.0
20260903213620 71 291 0.0 1.0 0.05 1.09 1.09 97 1015.1
20260903212111 71 352 1.0 3.0 0.26 1.08 1.08 97 1015.5
20260903210601 72 300 2.0 4.0 2.53 0.90 0.90 96 1016.1
20260903205051 73 296 0.0 2.0 0.83 0.22 0.22 93 1016.0
20260903203540 86 120 3.0 5.0 0.24 0.04 0.04 79 1013.5
20260903202051 89 272 0.0 0.0 0.00 0.00 0.00 68 1011.8
20260903200520 90 252 0.0 0.0 0.00 0.00 0.00 67 1011.6
20260903195031 91 275 0.0 2.0 0.00 0.00 0.00 65 1011.6
20260903193502 94 261 0.0 0.0 0.00 0.00 0.00 61 1012.1
20260903192001 96 273 0.0 1.0 0.00 0.00 0.00 57 1013.0
20260903190451 94 240 1.0 2.0 0.00 0.00 0.00 59 1013.4
20260903184940 94 277 0.0 1.0 0.00 0.00 0.00 61 1013.7
20260903183430 95 161 2.0 2.0 0.00 0.00 0.00 58 1013.9
20260903181921 94 285 0.0 0.0 0.00 0.00 0.00 60 1013.8
20260903180411 95 279 0.0 0.0 0.00 0.00 0.00 62 1013.7
20260903174901 95 138 1.0 2.0 0.00 0.00 0.00 58 1014.0
20260903173411 95 261 0.0 1.0 0.00 0.00 0.00 62 1014.0
20260903171840 96 292 2.0 3.0 0.00 0.00 0.00 58 1014.0
20260903170330 96 278 0.0 0.0 0.00 0.00 0.00 58 1014.2
20260903164821 96 282 0.0 1.0 0.00 0.00 0.00 57 1014.4
20260903163311 96 281 0.0 0.0 0.00 0.00 0.00 59 1014.4
20260903161801 96 266 0.0 1.0 0.00 0.00 0.00 59 1014.8
20260903160310 96 279 0.0 0.0 0.00 0.00 0.00 59 1014.6
20260903154740 94 280 0.0 0.0 0.00 0.00 0.00 61 1014.8
20260903153231 95 277 0.0 1.0 0.00 0.00 0.00 63 1014.9
20260903151721 95 289 0.0 0.0 0.00 0.00 0.00 61 1014.7
20260903150211 94 289 0.0 0.0 0.00 0.00 0.00 63 1014.9
20260903144701 93 267 0.0 1.0 0.00 0.00 0.00 62 1014.9
20260903143151 91 272 0.0 0.0 0.00 0.00 0.00 66 1014.7
20260903141701 90 264 0.0 1.0 0.00 0.00 0.00 67 1014.7
20260903140131 88 274 0.0 1.0 0.00 0.00 0.00 71 1014.6
20260903134621 86 272 0.0 1.0 0.00 0.00 0.00 72 1014.9
20260903133111 86 272 0.0 1.0 0.00 0.00 0.00 73 1015.0
20260903131620 84 275 0.0 1.0 0.00 0.00 0.00 75 1014.9
20260903130050 84 277 0.0 0.0 0.00 0.00 0.00 77 1015.1
20260903124540 83 273 0.0 1.0 0.00 0.00 0.00 79 1015.3
20260903123030 80 275 0.0 0.0 0.00 0.00 0.00 85 1015.2
20260903121521 78 272 0.0 0.0 0.00 0.00 0.00 89 1015.2
20260903120010 77 274 0.0 1.0 0.00 0.00 0.00 92 1015.1
20260903114522 76 275 0.0 0.0 0.00 0.00 0.00 94 1015.0
20260903113000 75 273 0.0 0.0 0.00 0.00 0.00 94 1014.9
20260903111501 75 265 0.0 0.0 0.00 0.00 0.00 95 1014.8
20260903110010 75 265 0.0 0.0 0.00 0.00 0.00 95 1014.7
20260903104501 75 265 0.0 0.0 0.00 0.00 0.00 95 1014.6
20260903102930 75 265 0.0 0.0 0.00 0.00 0.00 95 1014.7
20260903101441 75 267 0.0 0.0 0.00 0.00 0.00 95 1014.5
20260903095910 75 267 0.0 0.0 0.00 0.00 0.00 94 1014.5
20260903094400 75 267 0.0 0.0 0.00 0.00 0.00 94 1014.2
20260903092851 76 267 0.0 0.0 0.00 0.00 0.00 94 1014.3
20260903091341 76 267 0.0 0.0 0.00 0.00 0.00 94 1014.3
20260903085830 76 267 0.0 0.0 0.00 0.00 0.00 94 1014.3
20260903084320 76 267 0.0 0.0 0.00 0.00 0.00 93 1014.2
20260903082811 76 267 0.0 0.0 0.00 0.00 0.00 93 1014.3
20260903081300 76 267 0.0 0.0 0.00 0.00 0.00 93 1014.3